Current Version              Previous Version:    01  02  03  04  05  06  07  08  09  10  11  12  13  14  15  16  17  18  19  20  21  22  23  24  25  26  27  28  29  30  
   31  32  33  34  35  36  37  38  39  40  41  42  43  44  45  46  47  48  49  50  51  52  53  54  55  56  57  58  59  60  

[Printable]
599
ASUS44 KLUB 021310
RWRTX
WEST TEXAS WEATHER ROUNDUP
NATIONAL WEATHER SERVICE LUBBOCK TX
800 AM CDT TUE SEP 02 2014

NOTE: "FAIR" INDICATES FEW OR NO CLOUDS BELOW 12,000 FEET WITH NO
SIGNIFICANT WEATHER AND/OR OBSTRUCTIONS TO VISIBILITY.

TXZ004-006>008-010-012-014-016-OKZ002-021400-
TEXAS PANHANDLE/OKLAHOMA PANHANDLE

CITY           SKY/WX    TMP DP  RH WIND       PRES   REMARKS
AMARILLO       PTCLDY    67  65  93 N8        30.02R FOG
BORGER         MOCLDY    70  65  84 NE12      30.01R
CANADIAN       CLOUDY    70  69  96 E12       29.96R
DALHART        CLOUDY    69  65  86 NE13      30.07R FOG
DUMAS          CLOUDY    66  65  96 NE12      30.03R FOG
GUYMON         CLOUDY    69  67  93 NE15      30.03R
HEREFORD       CLEAR     64  60  85 N7        30.03R
PAMPA          CLOUDY    65  64  95 E10       30.02R FOG
PERRYTON       MOCLDY    69  67  94 E14       29.99R
$$

TXZ026-029-035-045-048-021400-
SOUTHERN PANHANDLE/SOUTH PLAINS/ROLLING PLAINS

CITY           SKY/WX    TMP DP  RH WIND       PRES   REMARKS
CHILDRESS      CLEAR     75  63  66 S8        29.89R
SEMINOLE       CLEAR     74  58  57 S5        29.99R
LUBBOCK        CLEAR     72  60  66 S8        29.97R
PLAINVIEW      CLEAR     70  62  75 S7        29.96R
SNYDER         CLEAR     74  66  75 S12       29.96R
$$

TXZ052-054-060>062-072-078-127-140-154-169-021400-
PERMIAN BASIN/CONCHO VALLEY/BIG COUNTRY/EDWARDS PLATEAU

CITY           SKY/WX    TMP DP  RH WIND       PRES   REMARKS
ABILENE        CLEAR     77  68  73 S12       29.94R
BIG SPRING     CLEAR     76  66  71 SE13      29.98R
BRADY          CLEAR     73  70  88 S6        29.97R
BROWNWOOD      CLEAR     75  68  78 S9        29.96R
JUNCTION       CLEAR     75  69  81 CALM      29.98R
MIDLAND        CLEAR     77  66  68 S14       29.96R
ODESSA         CLEAR     77  64  64 S15       29.97R
SAN ANGELO     CLEAR     76  68  76 S15       29.96R
SONORA         MOCLDY    75  70  83 S8        30.03R
SWEETWATER     CLEAR     76  68  75 S17       29.98S
WINK           CLEAR     77  59  53 SE14      29.93R
$$

TXZ055-058-074-075-080-082-021400-
FAR WEST/SOUTHWEST MOUNTAINS/TRANS PECOS

CITY           SKY/WX    TMP DP  RH WIND       PRES   REMARKS
ALPINE         CLEAR     71  58  64 SW7       30.13R
DRYDEN           N/A     80  70  71 E9        29.95R
EL PASO        PTCLDY    69  46  43 S7        30.00R
FORT STOCKTON  CLEAR     75  59  57 S14       29.97R
GUADALUPE PASS CLEAR     73  37  27 SW8       30.14R
MARFA          CLEAR     61  54  77 NE6       30.13R
PECOS          CLEAR     69  55  62 CALM      29.92R
$$

TXZ014-016-019-021>030-083-021400
TEXAS TECH WEST TEXAS MESONET/TEXAS PANHANDLE/NORTHERN SOUTH PLAINS

CITY           SKY/WX    TMP DP  RH WIND       PRES   REMARKS
ABERNATHY 5ENE   N/A     70  60  69 S9        29.98R
AMARILLO 9NNE    N/A     67  66  97 N3        30.02R
AMARILLO 7SSE    N/A     67  64  93 N9        30.03R
AMHERST 1NE      N/A     70  59  69 SW8       29.99R
BOOTLEG 11WNW    N/A     65  62  90 N8        30.09R
CANADIAN 6E      N/A     70  69  96 E12       29.96R
CAPROCK CYN SP   N/A     80  60  51 SW22      29.90R
CHILDRESS 2NNE   N/A     77  63  62 S8        29.88R
CLARENDON 2WSW   N/A     75  61  61 NW8       29.96R
CLAUDE 12SW      N/A     72  57  60 NW7       30.00R
DIMMITT 2NE      N/A     70  58  66 SW12      30.01R
FLOYDADA 2NNE    N/A     73  59  62 S14       29.96R
FRIONA 2NE       N/A     62  51  65 W6        30.04R
GOODLETT 3W      N/A     79  62  54 S10       29.87R
HART 3N          N/A     65  59  82 S7        30.00R
HEREFORD 2NW     N/A     60  53  75 NW7       30.03R
MCLEAN 1E        N/A     66  64  93 N12       29.97R
MEMPHIS 1NE      N/A     72  65  78 E3        29.90R
MULESHOE 2SSW    N/A     64  58  79 W2        30.00S
OLTON 6S         N/A     67  59  75 S9        29.98R
PALO DURO SP     N/A     71  57  61 N8        30.02R
PAMPA 2E         N/A     65  65  97 NE9       30.01R
PLAINVIEW 1S     N/A     70  61  73 S7        29.97R
SILVERTON 7ESE   N/A     75  60  60 SW17      29.94R
TULIA 2ENE       N/A     70  61  72 SW9       29.98R
TURKEY 2WSW      N/A     80  61  52 SW15      29.89R
UMBARGER 3NNE    N/A     66  64  93 N9        30.03R
$$

TXZ033>036-039>041-045>048-021400
TEXAS TECH WEST TEXAS MESONET/SOUTH PLAINS

CITY           SKY/WX    TMP DP  RH WIND       PRES   REMARKS
AIKEN 3WSW       N/A     71  61  71 S12       29.98R
ANDREWS 2NE      N/A     76  58  53 S10       29.97R
ANTON 6SSW       N/A     66  58  77 SE6       29.97S
BROWNFIELD 2S    N/A     67  58  73 S5        29.98R
DENVR CTY 7WNW   N/A     67  57  70 SE6       30.00R
GAIL 2ESE        N/A     75  64  69 S8        29.95R
LAMESA 2SE       N/A     73  62  69 S8        29.97R
LEVELLAND 4S     N/A     66  58  73 S6        29.99R
LUBBOCK 3WNW     N/A     74  58  59 S9        29.97R
MORTON 1ENE      N/A     67  59  74 S10       29.99R
ODONNELL 1N      N/A     73  60  63 S12       29.97R
PLAINS 3N        N/A     69  57  67 SE3       30.01R
RALLS 1SE        N/A     73  60  64 S9        29.97S
REESE CENTER     N/A     69  59  69 S7        29.97S
SEAGRAVES 1SW    N/A     69  59  69 SE5       29.98R
SEMINOLE 2NNE    N/A     73  57  58 S7        29.98R
SLATON 2NE       N/A     73  60  63 S10       29.97R
SNYDER 3E        N/A     75  67  75 S12       29.94R
SUNDOWN 8SW      N/A     67  58  72 S7        29.99R
TAHOKA 3NNE      N/A     73  60  62 S9        29.97R
WOLFFORTH 6SSW   N/A     70  59  67 S7        29.98R
$$

TXZ031-032-036>038-042>044-021400-
TEXAS TECH WEST TEXAS MESONET/ROLLING PLAINS

CITY           SKY/WX    TMP DP  RH WIND       PRES   REMARKS
ASPERMONT 3NE    N/A     78  66  67 S9        29.91R
FLUVANNA 3WNW    N/A     74  63  69 S12       29.96R
GRAHAM 5SSW      N/A     75  62  63 S13       29.96R
GUTHRIE 10WSW    N/A     76  64  65 S9        29.90R
HASKELL 1NW      N/A     79  65  64 S14       29.90R
JAYTON 1SSE      N/A     78  65  66 S9        29.91R
KNOX CITY 3NW    N/A     78  65  64 S10       29.89R
LK A HENRY 1NW   N/A     79  66  64 S16       29.92R
NORTHFIELD 1S    N/A     79  63  57 S12       29.88R
ODELL 4ENE       N/A     80  66  62 S13       29.88R
PADUCAH 10SW     N/A     76  63  65 S8        29.90R
POST 1NE         N/A     76  61  59 S13       29.94R
RRING SPRGS 3N   N/A     77  62  58 S14       29.92R
SEYMOUR 3NW      N/A     79  67  65 S8        29.89R
SPUR 1W          N/A     76  63  64 SW8       29.92R
WEINERT 2NNE     N/A     79  68  68 S10       29.90R
WHITE RVR 6NE    N/A     74  61  62 S10       29.95R
$$

TXZ052-054-060>062-072-078-127-140-154-169-021400-
TEXAS TECH WEST TEXAS MESONET/PERMIAN BASIN/
CONCHO VALLEY/BIG COUNTRY/EDWARDS PLATEAU

CITY           SKY/WX    TMP DP  RH WIND       PRES   REMARKS
JUNCTION 1SSW    N/A     76  69  80 S9        29.98S
MERTZON 3NNE     N/A     76  69  78 S17       29.97R
SAN ANGELO 7NW   N/A     76  67  73 S7        29.97R
STRLNG CT 4WSW   N/A     75  69  80 S12       29.98R
ST LAWRNCE 5SW   N/A     74  67  80 S15       29.97R
SWEETWATR 11SW   N/A     75  68  80 S13       29.98R
WALL 1E          N/A     75  67  75 S8        29.97R
$$

TXZ055-058-074-075-080-082-021400-
TEXAS TECH WEST TEXAS MESONET/FAR WEST/SOUTHWEST MOUNTAINS/TRANS PECOS

CITY           SKY/WX    TMP DP  RH WIND       PRES   REMARKS
PRSMN GAP BBNP   N/A     79  59  51 NE9       29.99R
$$